Flag for U.S.A. Weather past 2 weeks in Passaic, New Jersey, U.S.A.

Now
67 °F

Clear.


Feels Like: 67 °F
Forecast: 65 / 81 °F
Wind: 5 mph from Northeast

Location: Teterboro Airport

Current Time: Sep 5, 2015 at 6:46:07 AM

Latest Report: Sep 5, 2015 at 5:51 AM


Visibility: 10 mi

Pressure: 30.23 "Hg

Humidity: 73%

Dew point: 58 °F

Location of PassaicLocation

Historic Weather in Passaic — Graph

°F

Passaic temperature yesterday

Maximum temperature yesterday: 83 °F (at 3:51 PM)
Minimum temperature yesterday: 73 °F (at 11:51 PM)
Average temperature yesterday: 79 °F

Past Weeks' High & Low Weather Summary

 TemperatureHumidityPressure
High93 °F (Sep 3, 3:51 PM)84% (Aug 23, 11:51 PM)30.23 "Hg (Aug 23, 11:51 PM)
Low61 °F (Aug 28, 6:51 AM)30% (Aug 25, 5:51 PM)29.78 "Hg (Aug 25, 4:51 PM)
Average77 °F55%30.00 "Hg
* Reported Aug 21 5:51 AM — Sep 5 5:51 AM, Passaic, Weather by CustomWeather, © 2015

Note: Actual official high and low records may vary slightly from our data, if they occured in-between our weather recording intervals... More about our weather records

Advertising

Passaic weather history for previous 24 hours

 ConditionsComfort  
Time TempWeatherWind HumidityBarometerVisibility
5:51 AM
Sat, Sep 5
67 °FClear.5 mph73%30.23 "Hg10 mi
4:51 AM69 °FPassing clouds.6 mph70%30.22 "Hg10 mi
3:51 AM70 °FPassing clouds.6 mph71%30.21 "Hg10 mi
2:51 AM71 °FOvercast.7 mph71%30.21 "Hg10 mi
1:51 AM71 °FOvercast.5 mph71%30.21 "Hg10 mi
12:51 AM72 °FClear.9 mph66%30.21 "Hg10 mi
11:51 PM
Fri, Sep 4
73 °FClear.3 mph62%30.20 "Hg10 mi
10:51 PM75 °FClear.5 mph58%30.19 "Hg10 mi
9:51 PM76 °FClear.6 mph60%30.17 "Hg10 mi
8:51 PM78 °FClear.6 mph60%30.15 "Hg10 mi
7:51 PM79 °FPassing clouds.5 mph52%30.12 "Hg10 mi
6:51 PM81 °FSunny.9 mph51%30.10 "Hg10 mi
5:51 PM82 °FSunny.8 mph49%30.10 "Hg10 mi
4:51 PM82 °FPassing clouds.10 mph53%30.09 "Hg10 mi
3:51 PM83 °FPartly sunny.10 mph53%30.09 "Hg10 mi
2:51 PM82 °FPartly sunny.14 mph53%30.09 "Hg10 mi
1:51 PM81 °FPartly sunny.10 mph56%30.09 "Hg8 mi
12:51 PM81 °FPassing clouds.12 mph60%30.09 "Hg10 mi
11:51 AM80 °FMore clouds than sun.14 mph62%30.07 "Hg10 mi
10:51 AM80 °FOvercast.13 mph62%30.06 "Hg10 mi
9:51 AM81 °FScattered clouds.10 mph58%30.04 "Hg10 mi
8:51 AM79 °FPassing clouds.6 mph65%30.02 "Hg10 mi
7:51 AM77 °FSunny.3 mph69%30.01 "Hg10 mi
6:51 AM75 °FClear.3 mph74%29.98 "Hg10 mi
Weather by CustomWeather, © 2015

See weather overviewHow to use our weather pages